TimeEST,TemperatureF,Dew PointF,Humidity,Sea Level PressureIn,VisibilityMPH,Wind Direction,Wind SpeedMPH,Gust SpeedMPH,PrecipitationIn,Events,Conditions,WindDirDegrees,DateUTC
12:33 AM,33.8,30.2,87,29.82,8.0,West,4.6,-,0.00,,Overcast,280,2013-03-01 05:33:00
12:41 AM,33.8,30.2,87,29.82,10.0,WNW,5.8,-,0.00,,Overcast,300,2013-03-01 05:41:00
1:53 AM,33.1,27.0,78,29.85,9.0,WNW,5.8,-,0.00,,Overcast,300,2013-03-01 06:53:00
3:53 AM,32.0,26.1,79,29.84,10.0,WNW,5.8,-,N/A,,Overcast,300,2013-03-01 08:53:00
4:53 AM,32.0,26.1,79,29.85,10.0,WNW,5.8,-,N/A,,Overcast,300,2013-03-01 09:53:00
5:53 AM,30.9,26.1,82,29.86,10.0,WNW,4.6,-,N/A,,Overcast,300,2013-03-01 10:53:00
6:53 AM,30.9,26.1,82,29.87,6.0,NNW,6.9,-,0.00,Snow,Light Snow,330,2013-03-01 11:53:00
7:40 AM,30.2,26.6,86,29.87,7.0,NW,6.9,-,0.00,Snow,Light Snow,310,2013-03-01 12:40:00
7:53 AM,30.9,26.1,82,29.90,5.0,WNW,4.6,-,0.00,Snow,Light Snow,300,2013-03-01 12:53:00
8:50 AM,30.2,26.6,86,29.89,3.0,NW,4.6,-,0.00,Snow,Light Snow,310,2013-03-01 13:50:00
8:53 AM,30.9,26.1,82,29.91,3.0,WNW,5.8,-,0.00,Snow,Light Snow,300,2013-03-01 13:53:00
9:07 AM,30.2,26.6,86,29.89,4.0,NW,5.8,-,0.00,Snow,Light Snow,310,2013-03-01 14:07:00
9:27 AM,30.2,26.6,86,29.89,2.5,WNW,5.8,-,0.00,Snow,Light Snow,300,2013-03-01 14:27:00
9:53 AM,30.9,27.0,85,29.90,6.0,WNW,5.8,-,0.00,Snow,Light Snow,300,2013-03-01 14:53:00
10:23 AM,32.0,26.6,80,29.89,8.0,NW,6.9,-,0.00,,Overcast,310,2013-03-01 15:23:00
10:53 AM,32.0,26.1,79,29.91,10.0,WNW,4.6,-,0.00,,Overcast,300,2013-03-01 15:53:00
11:53 AM,32.0,25.0,75,29.92,7.0,NW,6.9,-,0.00,Snow,Light Snow,310,2013-03-01 16:53:00
1:00 PM,32.0,24.8,75,29.89,7.0,West,8.1,-,0.00,Snow,Light Snow,280,2013-03-01 18:00:00
1:37 PM,33.8,24.8,70,29.88,10.0,WNW,8.1,-,0.00,,Overcast,290,2013-03-01 18:37:00
1:53 PM,33.1,24.1,70,29.90,7.0,West,6.9,-,0.00,Snow,Light Snow,270,2013-03-01 18:53:00
2:53 PM,33.1,25.0,72,29.89,7.0,WNW,9.2,-,0.00,Snow,Light Snow,290,2013-03-01 19:53:00
3:53 PM,32.0,23.0,69,29.90,10.0,NW,10.4,-,0.00,,Overcast,310,2013-03-01 20:53:00
4:43 PM,30.2,24.8,80,29.89,1.8,WNW,10.4,-,0.00,Snow,Light Snow,300,2013-03-01 21:43:00
4:53 PM,30.9,24.1,76,29.91,2.5,WNW,8.1,-,0.00,Snow,Light Snow,300,2013-03-01 21:53:00
5:00 PM,30.2,24.8,80,29.90,4.0,NW,6.9,-,0.00,Snow,Light Snow,320,2013-03-01 22:00:00
5:18 PM,30.2,23.0,75,29.90,5.0,NNW,5.8,-,0.00,Snow,Light Snow,340,2013-03-01 22:18:00
5:53 PM,30.9,23.0,72,29.93,7.0,North,3.5,-,0.00,Snow,Light Snow,10,2013-03-01 22:53:00
6:20 PM,30.2,21.2,69,29.91,4.0,NNW,4.6,-,0.00,Snow,Light Snow,340,2013-03-01 23:20:00
6:53 PM,30.0,23.0,75,29.94,9.0,West,4.6,-,0.00,,Overcast,280,2013-03-01 23:53:00
7:10 PM,30.2,24.8,80,29.93,3.0,WNW,8.1,-,0.00,Snow,Light Snow,290,2013-03-02 00:10:00
7:53 PM,28.9,23.0,78,29.96,5.0,WNW,5.8,-,0.00,Snow,Light Snow,290,2013-03-02 00:53:00
9:53 PM,28.9,23.0,78,29.97,9.0,West,4.6,-,N/A,,Overcast,280,2013-03-02 02:53:00
10:53 PM,28.9,23.0,78,29.96,9.0,West,4.6,-,0.00,,Overcast,270,2013-03-02 03:53:00
11:53 PM,28.9,23.0,78,29.95,4.0,NW,4.6,-,0.00,Snow,Light Snow,310,2013-03-02 04:53:00